Temp
6 6 6 7 7 7 7 7 7 7 7 7 7 8 8 8 8 8 7 7 7 7 6 6 6 6 6 6 6 5 4 3 3 3 2 2 3 3 3 2 2 1 1 1 2
6 6 6 7 7 7 7 7 7 7 7 7 7 8 8 8 7 7 7 7 7 7 6 6 6 6 6 6 5 5 4 3 3 3 3 3 3 3 3 3 2 1 1 1 1
6 6 6 6 6 7 7 7 7 7 7 7 7 7 7 7 7 7 6 6 6 6 6 6 6 6 5 5 5 4 4 4 4 4 3 3 3 3 3 3 3 3 2 2 2
6 6 6 6 6 6 6 6 7 7 7 7 7 6 6 7 6 6 6 6 6 5 5 5 5 5 5 5 4 4 4 4 3 4 3 3 3 3 3 3 4 3 3 2 2
5 6 5 6 6 6 6 6 6 6 6 6 6 6 6 6 6 6 6 5 5 5 5 5 4 5 5 4 4 4 4 4 3 3 3 3 3 3 3 3 3 2 3 2 2
5 5 5 5 5 5 5 5 6 6 6 6 6 6 6 6 5 5 5 5 5 4 4 4 4 4 4 4 4 4 4 3 3 3 3 3 3 3 3 3 2 2 2 3 2
4 4 5 5 5 5 5 5 5 5 5 5 5 5 5 5 5 5 5 4 4 4 4 3 4 3 3 3 3 3 4 3 3 3 3 2 3 3 2 2 1 1 1 2 2
4 4 4 4 4 4 5 5 4 5 5 5 5 5 5 4 5 5 4 4 4 4 3 3 3 3 3 3 2 2 3 3 2 1 1 1 2 2 2 2 1 1 1 1 1
3 3 4 4 4 4 4 4 4 4 4 4 4 4 4 4 4 4 4 3 3 3 3 3 2 2 2 2 2 2 1 1 0 0 0 -0 2 1 1 1 1 1 0 1 1
3 3 3 3 3 4 4 3 3 4 4 3 4 4 4 4 4 3 3 3 3 3 2 2 2 2 1 1 1 0 0 0 0 -0 -1 -1 1 1 1 -0 0 -0 -0 0 0
3 3 3 3 3 3 3 3 3 3 3 3 3 4 2 3 3 2 2 2 2 2 2 2 1 1 1 0 -0 -1 -0 -1 0 0 -1 -1 -1 1 1 0 0 -1 -1 0 -1
2 3 3 3 3 3 2 2 3 3 3 3 3 3 2 2 2 2 1 1 1 1 1 1 1 0 -0 -1 -1 -1 -0 -0 0 -2 -2 -0 -0 1 1 0 -0 0 0 -0 -1
2 2 2 2 2 2 2 2 2 2 2 2 2 2 1 1 2 1 1 1 0 1 1 0 0 0 -1 -1 -1 -1 -1 -1 -3 -2 -2 -1 -1 0 0 -1 -1 -1 -1 -1 -1
2 2 2 1 2 2 2 2 1 1 1 1 1 2 1 1 1 1 1 0 0 0 0 0 -0 -0 -1 -1 -1 -1 -2 -2 -3 -3 -4 -3 -6 -3 -2 -2 -2 -2 -2 -2 -2
1 1 1 1 1 1 1 1 1 1 -4 1 0 1 1 1 1 1 1 0 0 0 -0 -1 -1 -1 -1 -1 -2 -2 -3 -3 -3 -4 -5 -4 -5 -3 -3 -2 -2 -3 -2 -2 -2
1 1 1 0 0 0 0 0 0 0 -1 0 1 0 0 0 0 0 0 -0 -0 -1 -1 -2 -1 -2 -2 -2 -3 -3 -3 -3 -4 -5 -9 -5 -5 -4 -3 -3 -2 -2 -3 -3 -3
0 0 0 -0 -0 -0 -1 -1 -1 -1 1 0 0 0 0 -0 -0 -0 -0 -1 -1 -1 -2 -2 -2 -2 -3 -3 -3 -3 -4 -4 -8 -10 -10 -4 -5 -4 -3 -3 -3 -4 -4 -4 -4
-0 -0 -0 -1 -1 -1 -1 -2 -2 -0 0 -0 0 -1 -1 -0 -1 -1 -1 -1 -1 -2 -3 -3 -3 -3 -3 -3 -4 -5 -5 -5 -12 -11 -8 -5 -6 -4 -4 -4 -5 -5 -5 -5 -5
-0 -1 -1 -1 -1 -2 -2 -3 -1 -0 -0 0 -0 -1 -1 -1 -1 -1 -2 -2 -2 -2 -3 -4 -4 -4 -4 -4 -4 -6 -6 -6 -6 -6 -8 -6 -5 -5 -5 -5 -5 -6 -6 -6 -6
-1 -1 -1 -2 -2 -2 -3 -3 -2 -1 -0 -0 -1 -1 -1 -1 -2 -2 -2 -2 -3 -3 -3 -4 -4 -5 -5 -5 -5 -5 -6 -7 -7 -14 -14 -7 -6 -6 -6 -5 -6 -7 -7 -7 -7
-2 -2 -2 -3 -3 -3 -3 -3 -3 -2 -2 -1 -1 -1 -1 -1 -2 -2 -3 -3 -3 -3 -4 -4 -5 -5 -5 -6 -6 -6 -7 -7 -7 -7 -13 -13 -7 -6 -7 -8 -8 -8 -9 -8 -8
-2 -2 -3 -4 -4 -4 -4 -4 -3 -2 -2 -2 -2 -2 -2 -2 -2 -3 -3 -3 -4 -4 -4 -5 -5 -6 -6 -6 -7 -7 -7 -7 -8 -8 -8 -8 -8 -8 -8 -8 -9 -10 -9 -9 -10
-2 -2 -4 -5 -5 -5 -4 -3 -3 -3 -3 -3 -3 -3 -3 -3 -3 -4 -4 -4 -4 -5 -5 -5 -6 -7 -7 -7 -7 -7 -7 -8 -8 -8 -9 -12 -9 -8 -9 -10 -10 -11 -11 -11 -11
-3 -4 -4 -5 -5 -5 -4 -4 -4 -4 -4 -4 -3 -3 -3 -4 -4 -4 -5 -5 -5 -5 -5 -6 -7 -7 -7 -7 -8 -8 -9 -9 -10 -11 -10 -10 -10 -9 -10 -11 -11 -12 -12 -12 -12
-3 -4 -3 -4 -4 -6 -6 -5 -5 -5 -6 -5 -5 -4 -4 -4 -5 -5 -5 -5 -6 -6 -6 -7 -7 -7 -7 -8 -8 -9 -9 -9 -9 -9 -12 -10 -11 -11 -12 -12 -12 -12 -12 -12 -12
-3 -4 -4 -3 -4 -6 -7 -6 -5 -6 -5 -4 -4 -4 -4 -5 -5 -5 -5 -6 -6 -7 -7 -7 -8 -8 -8 -8 -9 -10 -9 -9 -10 -10 -11 -11 -12 -12 -13 -13 -13 -13 -13 -13 -13
-4 -5 -5 -5 -5 -6 -6 -4 -4 -5 -5 -4 -5 -5 -5 -5 -5 -6 -6 -6 -7 -7 -8 -8 -8 -9 -9 -9 -10 -10 -9 -9 -10 -11 -12 -13 -13 -13 -13 -13 -14 -14 -14 -15 -14
Height
3143 3143 3142 3142 3141 3141 3142 3143 3143 3144 3144 3143 3144 3144 3144 3144 3144 3144 3143 3144 3142 3141 3141 3141 3141 3142 3142 3142 3142 3142 3145 3146 3147 3148 3148 3146 3146 3145 3144 3143 3143 3142 3141 3140 3139
3142 3142 3143 3141 3141 3141 3142 3142 3143 3143 3142 3143 3144 3144 3143 3143 3143 3142 3143 3142 3141 3141 3141 3140 3140 3141 3141 3142 3142 3142 3143 3144 3146 3146 3146 3145 3144 3143 3144 3142 3141 3140 3140 3138 3136
3141 3141 3142 3142 3142 3141 3142 3141 3142 3142 3142 3143 3143 3142 3143 3143 3143 3142 3141 3140 3139 3139 3139 3139 3139 3139 3140 3141 3142 3142 3142 3142 3143 3144 3143 3143 3143 3142 3141 3141 3138 3137 3137 3136 3133
3140 3140 3142 3141 3141 3140 3140 3140 3140 3142 3142 3141 3140 3141 3142 3142 3144 3140 3139 3138 3138 3138 3138 3137 3138 3138 3138 3139 3140 3142 3141 3141 3142 3142 3142 3141 3140 3140 3139 3138 3137 3135 3132 3131 3129
3138 3140 3140 3139 3139 3138 3139 3139 3139 3140 3140 3139 3139 3139 3140 3141 3140 3138 3137 3137 3136 3136 3136 3136 3136 3136 3137 3136 3137 3138 3139 3140 3140 3140 3139 3139 3138 3136 3137 3136 3135 3133 3130 3127 3126
3136 3137 3138 3137 3138 3138 3137 3137 3137 3138 3138 3138 3138 3138 3138 3138 3136 3136 3135 3135 3135 3135 3135 3135 3135 3135 3135 3134 3135 3135 3136 3137 3137 3137 3136 3136 3137 3134 3135 3134 3133 3130 3127 3125 3122
3134 3135 3136 3137 3137 3136 3136 3135 3134 3135 3136 3135 3136 3136 3136 3136 3134 3133 3133 3134 3133 3133 3133 3133 3134 3134 3134 3134 3133 3133 3134 3134 3134 3134 3133 3133 3134 3132 3132 3131 3129 3127 3123 3120 3118
3133 3133 3134 3134 3134 3135 3134 3134 3134 3134 3134 3134 3134 3133 3132 3132 3131 3131 3131 3132 3132 3132 3132 3133 3132 3133 3133 3133 3132 3133 3132 3132 3131 3131 3131 3132 3128 3130 3128 3127 3125 3122 3119 3116 3114
3130 3130 3132 3132 3132 3132 3132 3131 3131 3131 3131 3131 3132 3130 3130 3130 3130 3130 3130 3130 3130 3130 3130 3131 3132 3132 3133 3132 3131 3130 3130 3130 3131 3131 3129 3129 3124 3126 3126 3124 3121 3118 3114 3111 3109
3127 3127 3128 3129 3130 3129 3129 3129 3129 3129 3129 3128 3128 3132 3129 3129 3128 3128 3128 3128 3128 3129 3130 3130 3130 3130 3130 3131 3130 3128 3128 3130 3129 3128 3125 3122 3119 3120 3121 3118 3115 3112 3109 3105 3105
3124 3124 3125 3126 3126 3127 3127 3128 3129 3128 3126 3126 3125 3125 3125 3126 3126 3126 3126 3126 3126 3127 3128 3128 3129 3129 3129 3128 3130 3129 3126 3123 3124 3125 3119 3117 3115 3116 3114 3112 3109 3107 3104 3102 3101
3119 3121 3122 3123 3123 3123 3123 3123 3124 3125 3123 3121 3119 3119 3121 3122 3123 3123 3124 3126 3125 3125 3126 3128 3126 3128 3128 3129 3128 3128 3124 3121 3120 3119 3117 3114 3110 3111 3109 3107 3106 3104 3102 3101 3099
3115 3116 3117 3118 3119 3120 3119 3120 3120 3119 3119 3118 3115 3114 3116 3119 3119 3120 3122 3122 3123 3123 3123 3125 3126 3126 3126 3126 3125 3126 3123 3121 3119 3115 3115 3110 3105 3108 3109 3105 3102 3101 3099 3099 3097
3110 3111 3113 3115 3117 3116 3117 3116 3115 3115 3114 3114 3113 3111 3112 3113 3116 3117 3118 3122 3120 3120 3121 3122 3123 3124 3125 3124 3123 3123 3121 3120 3118 3115 3114 3114 3104 3103 3103 3102 3101 3100 3099 3099 3095
3105 3107 3108 3108 3111 3112 3113 3113 3113 3114 3113 3110 3109 3110 3110 3113 3113 3115 3117 3117 3120 3120 3122 3121 3120 3121 3122 3122 3121 3120 3119 3117 3115 3112 3110 3109 3108 3101 3101 3101 3099 3099 3097 3094 3092
3099 3101 3103 3104 3106 3108 3108 3110 3111 3115 3108 3105 3105 3106 3110 3110 3111 3112 3114 3117 3117 3119 3119 3118 3118 3119 3119 3119 3119 3118 3116 3115 3111 3110 3110 3109 3109 3101 3100 3100 3097 3096 3093 3092 3088
3092 3095 3097 3099 3101 3102 3104 3107 3110 3107 3104 3102 3101 3104 3106 3108 3110 3111 3112 3115 3116 3116 3120 3118 3118 3117 3117 3117 3117 3116 3115 3113 3114 3113 3110 3104 3104 3098 3099 3099 3096 3093 3091 3089 3085
3084 3088 3090 3092 3094 3097 3100 3104 3102 3098 3098 3098 3099 3101 3104 3106 3108 3110 3111 3112 3112 3113 3116 3116 3116 3117 3117 3117 3117 3115 3116 3118 3125 3117 3104 3105 3098 3097 3099 3097 3095 3093 3090 3087 3083
3076 3080 3083 3086 3088 3090 3095 3094 3093 3093 3094 3096 3097 3098 3101 3103 3107 3108 3109 3110 3109 3111 3115 3114 3115 3115 3115 3116 3117 3115 3115 3117 3114 3112 3107 3098 3094 3095 3095 3093 3091 3089 3087 3083 3079
3069 3071 3075 3078 3081 3084 3086 3085 3088 3089 3089 3092 3094 3096 3096 3098 3103 3105 3107 3106 3107 3109 3110 3111 3113 3113 3112 3114 3114 3114 3115 3116 3115 3117 3115 3094 3092 3091 3089 3087 3087 3085 3083 3079 3075
3058 3060 3065 3069 3072 3074 3072 3077 3081 3083 3087 3090 3091 3092 3094 3096 3098 3101 3104 3105 3104 3106 3107 3109 3111 3111 3110 3110 3109 3111 3112 3114 3113 3111 3108 3105 3086 3086 3087 3086 3083 3081 3078 3075 3071
3044 3048 3055 3058 3064 3060 3062 3068 3074 3077 3082 3085 3087 3088 3092 3094 3095 3099 3100 3101 3101 3103 3104 3106 3106 3106 3107 3105 3106 3107 3108 3108 3107 3103 3100 3095 3076 3084 3082 3080 3078 3076 3072 3069 3064
3031 3036 3041 3046 3048 3050 3056 3061 3067 3072 3077 3080 3082 3083 3087 3090 3094 3094 3094 3097 3098 3100 3100 3102 3101 3103 3102 3103 3102 3103 3103 3103 3101 3098 3091 3092 3077 3078 3075 3072 3071 3067 3064 3063 3058
3020 3023 3029 3033 3035 3043 3048 3053 3059 3065 3070 3073 3076 3078 3081 3084 3087 3089 3090 3092 3093 3096 3098 3099 3097 3099 3099 3098 3098 3097 3096 3096 3095 3089 3082 3078 3069 3068 3068 3063 3059 3057 3054 3052 3051
3005 3008 3013 3016 3024 3033 3042 3048 3053 3058 3062 3066 3069 3071 3074 3079 3081 3083 3086 3089 3090 3092 3094 3096 3094 3094 3093 3092 3091 3088 3086 3087 3085 3080 3077 3067 3066 3064 3061 3058 3054 3050 3046 3043 3041
2994 2999 3003 3013 3021 3027 3033 3037 3045 3049 3053 3057 3062 3066 3070 3073 3075 3076 3079 3082 3086 3088 3090 3091 3090 3089 3086 3086 3083 3078 3077 3076 3074 3071 3065 3063 3059 3059 3054 3051 3048 3044 3039 3036 3034
2983 2992 3000 3004 3010 3017 3018 3027 3035 3043 3048 3051 3058 3062 3065 3069 3071 3071 3073 3076 3079 3083 3085 3087 3087 3086 3081 3080 3077 3071 3067 3067 3065 3064 3061 3057 3054 3049 3047 3044 3041 3037 3035 3033 3031
Wind_Speed
4 4 3 3 3 4 5 4 4 4 5 6 6 7 8 8 8 9 7 7 6 5 4 4 4 2 1 1 3 4 7 3 5 8 4 13 10 10 11 10 6 7 14 18 17
4 4 4 3 3 4 4 4 4 6 7 8 8 9 10 9 8 8 7 6 6 6 5 3 3 2 2 2 3 4 6 4 7 12 12 14 14 14 12 10 10 11 15 19 21
5 5 4 3 2 3 4 5 6 7 8 9 10 10 10 10 11 7 7 6 5 5 4 4 4 3 3 2 2 2 7 4 11 9 10 11 12 14 15 11 17 18 16 17 21
4 4 3 2 2 3 4 5 6 7 7 8 8 9 10 10 7 8 8 7 6 6 4 5 5 5 4 3 3 3 8 9 10 11 11 13 13 14 15 17 17 17 21 21 20
4 4 3 2 2 2 3 4 5 6 7 8 9 9 9 11 9 11 9 7 6 5 5 5 5 6 5 4 5 5 8 9 11 12 13 15 14 17 15 16 18 18 21 23 22
4 3 3 2 2 2 2 3 5 7 8 9 9 9 9 9 10 9 8 7 7 6 6 6 7 7 7 6 6 7 9 11 13 13 16 16 15 19 18 16 15 18 22 23 24
5 5 4 4 3 3 4 5 5 7 8 9 11 10 11 9 10 9 8 8 8 6 6 6 6 6 6 5 5 6 10 12 14 14 15 14 14 16 18 20 18 21 25 27 27
7 7 6 5 4 5 5 6 7 8 9 10 10 10 10 11 9 8 7 7 7 6 5 5 6 7 7 7 8 9 10 11 11 12 16 20 25 19 21 20 23 27 31 30 28
8 7 7 7 6 6 6 6 7 8 9 10 11 10 10 6 8 7 6 6 6 5 5 5 6 6 7 8 8 6 7 8 11 12 15 21 29 22 23 28 30 31 33 33 32
10 9 8 8 8 7 8 8 9 10 10 9 9 9 9 9 9 8 8 8 7 6 6 5 5 6 6 8 3 6 10 12 12 15 22 28 34 32 28 27 30 29 33 37 34
13 11 10 10 8 9 9 10 11 12 9 9 12 13 13 11 10 9 8 8 8 8 6 6 5 7 7 8 11 13 15 20 21 21 25 28 32 30 27 27 24 27 32 36 32
16 13 12 11 11 11 11 11 11 12 13 13 14 15 15 14 13 11 11 9 9 9 6 6 8 8 9 11 13 18 20 20 20 9 19 28 34 29 19 12 20 25 28 29 31
18 16 15 13 12 13 12 12 12 12 12 16 18 16 16 15 13 12 11 10 9 9 7 7 9 8 11 14 14 14 16 17 19 23 23 25 27 7 14 30 22 18 22 25 32
22 19 17 15 14 14 13 12 10 11 9 10 9 9 10 11 11 10 10 8 7 6 3 4 3 3 6 9 10 12 12 14 18 21 10 21 12 28 20 16 24 17 19 23 25
23 21 20 17 16 15 14 12 9 7 3 5 8 6 6 7 4 5 5 5 5 4 3 5 5 6 9 10 10 11 15 19 21 19 17 13 9 5 13 15 17 17 23 28 27
25 24 22 19 18 17 15 11 8 3 7 7 6 7 9 10 8 5 6 5 3 6 7 6 7 8 7 11 13 14 16 16 9 9 2 4 7 6 7 14 22 25 29 35 38
27 26 25 22 18 17 15 13 7 8 5 7 9 10 11 11 9 8 7 6 6 2 4 3 5 7 7 7 7 9 13 7 4 3 5 7 12 11 20 17 26 34 34 32 29
30 29 27 23 20 18 17 18 12 8 13 7 8 11 13 10 10 10 8 8 10 8 6 4 4 3 3 7 8 11 7 2 4 3 9 22 10 8 19 20 25 28 34 32 32
32 31 29 25 21 22 23 25 11 17 14 17 12 12 12 13 9 8 9 10 10 8 5 4 3 3 4 10 10 3 4 4 13 17 10 8 11 15 19 23 24 34 38 30 29
36 34 31 28 26 26 28 29 21 18 14 14 14 11 10 15 12 9 9 7 9 10 9 5 5 8 8 8 8 10 8 4 5 2 5 10 26 14 14 24 37 30 29 27 28
41 39 36 33 31 32 36 34 32 24 18 14 15 13 13 10 12 12 8 7 8 7 7 7 8 7 9 7 10 9 9 9 10 10 4 3 14 10 33 33 28 32 33 31 30
48 44 39 37 37 41 41 36 35 23 27 17 15 16 15 14 13 14 14 13 8 9 9 11 8 8 11 13 14 11 11 12 9 12 15 21 41 41 23 21 41 36 29 30 29
52 47 39 42 44 45 41 39 35 28 27 22 21 21 19 17 12 16 19 16 14 13 7 7 8 3 3 6 7 8 11 20 17 25 32 13 24 35 47 46 44 38 36 27 23
51 45 46 44 47 45 43 39 36 32 28 26 23 22 20 20 22 10 15 13 15 14 13 13 16 15 12 16 18 21 23 21 23 25 34 38 46 44 33 33 32 31 30 29 33
54 47 48 37 49 46 38 29 36 33 32 29 29 28 23 21 21 22 16 14 15 14 15 15 17 17 18 20 22 26 28 28 29 34 32 40 36 33 32 30 31 36 35 34 32
52 51 43 42 25 41 40 41 35 33 31 32 31 23 27 24 20 12 15 18 17 14 17 19 16 17 23 22 25 28 30 29 20 23 27 28 35 30 26 30 37 31 32 29 22
51 48 38 38 40 32 43 40 33 31 28 30 26 23 21 18 17 16 15 15 13 12 14 17 15 15 16 18 23 24 5 14 19 25 28 25 26 31 38 37 27 26 23 23 23
Wind_Direction
314 310 333 357 39 57 45 38 40 46 36 33 22 16 13 7 0 346 339 334 336 340 338 343 321 294 121 130 111 111 115 87 205 259 233 278 303 299 305 299 294 272 284 294 299
316 326 333 352 21 54 55 50 36 31 35 25 16 11 8 4 348 336 345 347 344 335 324 328 285 286 232 178 144 137 159 184 238 264 266 280 298 298 305 295 275 257 266 284 290
323 331 329 343 25 53 52 51 40 32 28 23 15 8 359 349 338 336 339 340 331 311 305 293 278 263 236 209 189 196 211 244 265 272 283 291 296 306 310 315 299 302 298 288 291
328 332 328 353 22 43 52 48 43 29 20 15 9 359 351 344 334 320 321 322 315 305 292 283 283 272 254 232 216 218 246 264 274 291 292 294 300 299 299 305 309 315 308 307 306
324 320 320 342 6 46 38 31 19 13 4 3 357 351 344 332 327 321 323 319 301 288 278 286 282 275 272 252 243 248 279 290 283 292 293 294 299 296 307 301 312 303 305 308 311
288 288 301 323 340 357 9 11 3 358 348 348 343 336 329 318 318 316 315 306 292 284 284 276 270 272 270 263 264 278 280 285 288 295 290 294 298 297 311 313 307 304 303 306 307
276 279 287 298 308 325 340 341 350 343 337 337 330 326 319 316 315 309 303 294 287 282 274 274 274 272 273 286 279 290 290 294 297 295 295 299 302 301 298 303 303 304 304 305 304
275 276 274 277 288 304 319 329 336 332 328 325 321 316 307 309 307 300 293 283 278 275 273 275 273 276 281 281 292 303 305 318 317 316 308 310 304 310 308 308 303 302 301 301 301
270 271 273 278 289 299 307 311 313 311 311 311 309 307 301 299 298 291 284 276 276 272 268 268 269 276 285 294 297 301 309 317 316 306 306 303 298 305 305 301 298 299 300 300 302
267 268 273 278 289 296 301 306 306 305 306 307 308 302 295 293 286 280 275 274 272 270 269 265 273 278 283 291 276 279 297 291 283 294 298 294 294 301 308 304 301 296 297 298 302
265 276 280 282 290 302 306 304 301 299 296 296 288 288 281 280 276 270 266 268 270 267 265 263 264 271 287 297 299 295 292 291 296 298 288 290 291 304 312 303 295 288 287 298 309
258 271 278 281 294 300 302 299 296 295 297 294 285 276 270 269 267 266 266 267 267 269 269 266 270 278 284 280 279 285 291 296 301 309 290 299 296 311 305 298 322 307 300 304 310
256 264 270 277 287 293 295 294 297 302 300 286 273 268 263 265 268 267 264 264 263 267 268 272 269 280 285 291 289 292 297 306 307 314 315 313 313 313 315 309 319 316 306 309 312
255 259 268 275 278 289 286 286 289 299 295 277 271 258 253 252 256 253 248 243 244 256 268 277 274 299 301 302 302 302 297 304 307 319 321 315 294 312 335 325 319 315 304 313 322
255 259 262 267 277 279 275 274 275 291 338 251 237 240 222 198 184 179 197 207 243 267 239 250 269 289 297 297 310 297 308 308 312 309 309 321 274 336 324 322 328 327 324 324 328
252 255 260 265 274 273 260 251 241 225 255 219 211 211 210 200 196 189 202 205 215 268 264 262 275 287 292 300 300 303 311 319 307 301 326 52 340 282 346 324 318 319 318 315 317
250 254 258 262 271 256 244 228 197 215 215 224 221 208 203 204 214 209 193 230 243 237 251 292 274 279 298 316 319 331 340 327 358 344 233 258 323 266 298 313 312 313 315 316 317
249 252 254 256 261 244 231 212 212 225 211 211 201 202 208 211 208 210 229 237 247 244 261 263 260 271 320 333 327 319 324 273 235 276 285 301 258 306 322 310 312 318 320 313 312
248 247 248 250 250 235 222 205 226 232 230 233 219 208 211 210 214 220 233 239 246 238 219 217 248 232 267 292 303 285 252 280 261 270 292 271 282 299 307 306 318 325 316 309 308
245 244 243 241 239 228 223 223 226 226 224 222 221 211 204 220 219 214 210 233 240 246 238 247 268 264 272 288 285 276 280 273 250 346 297 289 304 303 341 318 315 320 312 313 311
235 235 234 228 227 223 220 221 230 227 227 225 219 216 215 217 209 210 215 229 213 217 224 258 252 262 278 289 299 284 266 263 267 254 205 268 286 278 304 311 316 324 323 314 305
238 226 227 222 218 221 224 223 229 232 233 221 222 227 228 225 225 218 227 222 206 202 246 252 264 249 281 281 275 265 266 273 251 264 253 267 276 294 296 299 306 309 307 311 301
232 226 220 220 221 225 228 225 227 230 232 233 233 232 231 230 220 224 232 231 227 242 237 220 230 255 268 259 267 256 270 289 277 274 273 267 273 291 305 309 307 304 299 293 291
224 214 217 220 227 227 226 223 224 230 230 233 235 232 234 230 229 234 222 221 224 233 242 250 249 250 246 279 285 281 283 280 284 275 278 276 285 303 316 318 314 313 309 300 277
217 219 227 219 222 222 219 224 227 226 226 224 234 234 235 226 224 226 227 224 239 238 239 244 254 265 274 282 282 282 286 293 287 291 279 291 296 311 316 312 311 313 312 306 297
222 219 220 225 219 223 213 220 222 224 225 227 230 235 234 231 228 226 232 238 246 242 239 238 260 273 281 284 285 288 296 298 290 288 284 301 303 316 311 310 311 310 311 316 305
219 218 220 220 212 207 217 219 219 218 230 231 232 233 227 224 226 231 231 230 235 238 235 238 250 274 280 284 297 297 301 304 301 300 303 300 304 305 311 317 309 307 319 324 312